Location: Namasale
(1.5000°N, 32.6167°E)
Time: 19:46:54
(UTC+00:00)

Vanguard 1 Rocket - Pass Details

Date: 25 April 2021
Orbit: 652 x 4224 km, 34.3° (Epoch: 10 May)

Event Time Altitude Azimuth Distance (km) Brightness Sun altitude
Rises 03:44:41 0° 225° (SW) 8,428 11.8 -0.4°
Reaches altitude 10° 03:51:06 10° 219° (SW) 7,430 11.6 1.2°
Maximum altitude 04:15:22 51° 149° (SSE) 3,986 10.9 7.1°
Drops below altitude 10° 04:30:17 10° 78° (ENE) 4,884 15.9 10.7°
Sets 04:33:24 0° 72° (ENE) 5,502 13.6 11.5°
